Location: Champs
(48.8539°N, 2.6040°E)
Time: 22:24:29
(UTC+00:00)

Cosmos 1953 - Pass Details

Date: 05 June 2022
Orbit: 533 x 555 km, 82.5° (Epoch: 01 July)

Event Time Altitude Azimuth Distance (km) Brightness Sun altitude
Rises 00:20:14 0° 334° (NNW) 2,713 6.8 -18.3°
Reaches altitude 10° 00:23:05 10° 312° (NW) 1,810 5.4 -18.2°
Maximum altitude 00:25:28 16° 275° (W) 1,480 4.5 -18.1°
Enters shadow 00:26:30 14° 257° (WSW) 1,544 4.4 -18.1°
